Lid_Strength_Index
0 0 0 0 0 0 1 1 1 0 0 0 0 0 -0 -0 0 2 4 1 0 -2 -1 5 8 9 10 11 10 12 16 17 15 14 14 13 13 12 12 12 12 12 12 11 9
1 1 1 0 -0 -0 -0 -0 -0 0 -0 -0 -0 -0 -1 -1 2 4 -0 -2 -2 -2 6 7 10 10 11 11 11 14 18 16 13 13 14 12 12 12 13 13 13 13 10 9 9
1 1 1 1 0 0 0 -0 -1 -0 -0 -0 -0 -0 -0 -1 5 5 -1 -2 -2 -1 7 7 9 9 12 11 11 12 15 14 13 13 12 13 13 12 13 15 13 13 11 10 10
2 2 2 1 1 1 1 1 1 -0 -1 -1 -0 -1 -1 2 14 5 -1 -1 -2 3 6 8 9 11 12 13 10 13 11 11 11 12 13 14 12 13 13 13 12 11 10 10 10
2 2 2 1 2 1 1 1 1 0 -0 -1 -1 -0 1 6 6 1 -2 -1 2 4 7 8 10 11 12 11 11 12 11 10 10 11 12 13 14 14 13 12 11 11 10 11 10
2 2 1 1 1 1 1 0 -0 -1 -1 -1 -2 -1 3 9 2 1 0 2 3 5 7 8 9 9 10 11 11 11 10 11 11 11 11 13 13 13 13 11 12 11 11 11 11
2 2 2 2 1 1 -0 -0 -1 -1 -1 -1 -1 0 4 6 2 2 3 3 4 5 8 8 7 8 9 10 8 10 12 11 11 10 11 11 14 15 12 12 12 13 12 12 11
2 2 2 1 1 0 -0 -1 -1 -2 -1 -1 -1 2 6 1 1 1 3 6 6 6 6 6 6 7 9 9 10 12 12 15 11 10 10 11 16 12 11 11 12 13 13 12 12
2 2 2 1 0 0 -0 -1 -2 -2 -2 -1 2 4 7 0 3 2 2 7 7 6 6 4 6 8 9 12 14 13 17 15 13 10 10 12 15 11 10 10 11 12 13 13 12
2 2 1 0 0 0 -0 -0 -0 -1 1 0 1 6 5 6 3 3 6 6 7 7 8 8 9 12 12 13 17 16 16 15 14 12 11 13 13 12 12 10 11 12 14 14 14
2 2 1 0 0 -0 1 5 7 8 5 7 6 6 5 3 4 5 5 7 7 9 12 11 13 14 13 11 12 13 14 14 13 10 12 13 13 11 11 12 13 13 14 16 15
2 1 1 1 0 -0 4 8 5 5 9 5 5 5 3 3 6 4 5 8 10 13 11 11 14 11 10 10 11 12 14 13 12 12 12 14 14 12 12 12 13 13 14 15 14
1 0 -0 0 -0 4 6 5 2 3 9 8 6 7 6 4 7 6 5 8 11 12 12 13 11 9 10 11 12 13 14 14 14 14 13 16 17 17 14 13 13 13 14 16 17
1 0 -0 -0 4 5 6 3 3 3 12 12 9 6 6 5 8 4 4 7 9 11 11 11 9 10 10 12 11 14 11 12 13 15 19 15 22 17 15 17 14 15 15 16 18
-0 -0 -0 -0 5 5 4 2 2 4 24 11 8 4 5 8 7 7 3 7 10 9 10 12 12 11 12 12 11 13 12 14 15 18 18 18 22 18 15 17 16 15 16 16 19
-1 -1 -0 3 4 3 2 3 5 18 25 11 8 9 9 8 8 6 6 6 6 9 9 10 9 10 12 12 11 12 13 14 15 17 24 21 19 19 18 16 15 15 15 15 17
-1 -0 1 2 6 3 4 7 17 24 11 12 12 9 10 11 9 9 10 11 13 15 15 12 12 11 11 13 12 13 16 25 21 21 23 19 19 18 15 14 15 16 16 16 20
-0 1 3 3 3 4 7 14 24 14 14 9 10 10 12 11 11 11 12 13 10 12 15 17 18 12 11 13 15 15 16 22 26 25 21 16 21 17 16 17 18 20 21 17 17
0 6 6 4 2 2 11 21 18 13 10 11 10 13 14 11 11 12 12 13 11 11 16 18 16 13 13 13 13 15 19 14 20 20 21 19 19 17 17 17 17 18 20 21 19
6 8 8 3 3 5 14 15 12 8 8 9 14 12 15 13 13 13 13 11 11 9 9 13 18 14 13 13 13 14 13 18 20 27 25 20 20 19 18 18 17 17 20 21 20
8 11 7 3 4 10 16 14 10 7 7 10 12 13 13 14 13 14 13 11 9 10 10 13 19 17 14 15 16 15 19 16 17 20 25 24 19 19 19 19 18 18 21 22 22
10 15 7 5 13 11 15 10 7 8 7 9 9 11 12 12 13 13 13 12 8 10 14 12 19 23 16 13 12 14 15 15 20 24 22 23 19 17 19 19 21 21 22 23 23
10 12 6 7 17 13 11 10 8 9 9 10 11 9 10 12 15 12 11 9 9 11 15 14 19 23 19 14 14 15 15 15 18 21 23 22 19 15 17 19 19 22 21 22 15
9 15 12 10 13 13 12 11 11 7 8 8 9 9 11 12 11 12 12 10 9 9 8 11 17 21 21 21 19 21 19 15 17 19 24 21 19 18 16 17 18 21 22 20 14
11 13 9 14 14 13 10 10 11 12 9 9 10 10 11 17 14 13 11 10 10 10 12 16 21 20 16 15 16 16 20 20 21 18 19 20 20 18 17 17 19 21 21 15 15
10 14 11 13 11 14 10 11 11 11 10 11 11 10 10 12 12 15 14 14 14 14 19 16 18 18 21 15 17 17 15 16 18 16 17 19 18 15 18 18 20 22 17 16 16
9 8 9 11 15 17 14 11 10 10 9 8 9 10 11 10 9 9 10 12 14 18 19 18 19 20 25 18 23 23 22 19 18 18 16 18 16 15 17 17 18 20 17 17 16